Home > Weather > Naples > Past weeks

Flag for USA Weather for the Past 2 Weeks in Naples, Florida, USA

Now
75 °F

Sunny.


Feels Like: 74 °F
Forecast: 71 / 85 °F
Wind: 5 mph from Southeast

Location: Naples Municipal

Current Time: Apr 29, 2016 at 8:36:19 AM

Latest Report: Apr 29, 2016 at 7:53 AM


Visibility: 10 mi

Pressure: 30.00 "Hg

Humidity: 88%

Dew Point: 71 °F

Location of NaplesLocation

Historic Weather in Naples — Graph

°F

Naples Temperature Yesterday

Maximum temperature yesterday: 87 °F (at 12:53 PM)
Minimum temperature yesterday: 71 °F (at 5:53 AM)
Average temperature yesterday: 79 °F

High & Low Weather Summary for the Past Weeks

 TemperatureHumidityPressure
High88 °F (Apr 16, 2:53 PM)100% (Apr 26, 11:53 PM)30.19 "Hg (Apr 26, 11:53 PM)
Low61 °F (Apr 18, 6:53 AM)32% (Apr 19, 2:53 PM)29.86 "Hg (Apr 15, 3:53 PM)
Average76 °F69%30.00 "Hg
* Reported Apr 14 6:53 AM — Apr 29 6:53 AM, Naples, Weather by CustomWeather, © 2016

Note: Actual official high and low records may vary slightly from our data, if they occured in-between our weather recording intervals... More about our weather records

Advertising

Naples Weather History for the Previous 24 Hours

Scroll right to see more
 ConditionsComfort  
Time TempWeatherWind HumidityBarometerVisibility
6:53 AM
Fri, Apr 29
73 °FClear.No wind90%29.98 "Hg10 mi
5:53 AM73 °FClear.No wind90%29.97 "Hg10 mi
4:53 AM73 °FClear.6 mph90%29.96 "Hg10 mi
3:53 AM75 °FClear.No wind88%29.95 "Hg10 mi
2:53 AM76 °FClear.No wind85%29.95 "Hg10 mi
1:53 AM78 °FPassing clouds.5 mph79%29.97 "Hg10 mi
12:53 AM78 °FPassing clouds.3 mph79%29.98 "Hg10 mi
11:53 PM
Thu, Apr 28
77 °FPassing clouds.No wind85%30.01 "Hg10 mi
10:53 PM78 °FPassing clouds.No wind79%30.01 "Hg10 mi
9:53 PM78 °FPassing clouds.No wind79%30.00 "Hg10 mi
8:53 PM78 °FSunny.5 mph82%29.98 "Hg10 mi
7:53 PM79 °FPassing clouds.8 mph77%29.96 "Hg10 mi
6:53 PM81 °FPassing clouds.7 mph69%29.95 "Hg10 mi
5:53 PM83 °FSunny.9 mph63%29.94 "Hg10 mi
4:53 PM83 °FScattered clouds.10 mph61%29.94 "Hg10 mi
3:53 PM84 °FScattered clouds.13 mph61%29.95 "Hg10 mi
2:53 PM85 °FScattered clouds.12 mph61%29.96 "Hg10 mi
1:53 PM87 °FPassing clouds.14 mph55%29.97 "Hg10 mi
12:53 PM87 °FScattered clouds.N/A46%29.98 "Hg10 mi
11:53 AM86 °FPassing clouds.10 mph49%30.00 "Hg10 mi
10:53 AM83 °FSunny.10 mph55%30.00 "Hg10 mi
9:53 AM80 °FSunny.10 mph67%29.98 "Hg10 mi
8:53 AM77 °FSunny.9 mph74%29.98 "Hg10 mi
Weather by CustomWeather, © 2016

See weather overviewHow to use our weather pages